• In Deutschland
  • Länderverzeichnis
  • Für 7 Tage
  • Wassertemperatur
  • Satellitenkarten
  • Wetterkarte
  • Widgets
  • user-avatar
    Anmelden

    Stündliche Wetter Kalat

    Heute, 18 Juni, Montag

    Zeit Temperatur Niederschläge Wind Luftdruck Luftfeuchtigkeit
    00:00 +5°C° 0 mm 1 m/S 476 mmHg 69%
    01:00 +5°C° 0 mm 1 m/S 476 mmHg 71%
    02:00 +4°C° 0 mm 1 m/S 475 mmHg 72%
    03:00 +4°C° 0 mm 1 m/S 475 mmHg 72%
    04:00 +3°C° 0 mm 1 m/S 475 mmHg 73%
    05:00 +3°C° 0 mm 1 m/S 474 mmHg 73%
    06:00 +4°C° 0 mm 1 m/S 475 mmHg 64%
    07:00 +4°C° 0 mm 2 m/S 476 mmHg 55%
    08:00 +5°C° 0 mm 2 m/S 477 mmHg 46%
    09:00 +6°C° 0 mm 2 m/S 478 mmHg 41%
    10:00 +8°C° 0 mm 2 m/S 478 mmHg 36%
    11:00 +9°C° 0 mm 2 m/S 479 mmHg 31%
    12:00 +9°C° 0 mm 2 m/S 479 mmHg 31%
    13:00 +10°C° 0 mm 3 m/S 480 mmHg 31%
    14:00 +11°C° 0 mm 3 m/S 480 mmHg 31%
    15:00 +11°C° 0,1 mm 3 m/S 480 mmHg 33%
    16:00 +10°C° 0,1 mm 3 m/S 480 mmHg 35%
    17:00 +10°C° 0,1 mm 3 m/S 479 mmHg 38%
    18:00 +9°C° 0 mm 3 m/S 479 mmHg 43%
    19:00 +8°C° 0 mm 3 m/S 478 mmHg 47%
    20:00 +7°C° 0 mm 2 m/S 478 mmHg 52%
    21:00 +6°C° 0 mm 2 m/S 477 mmHg 55%
    22:00 +6°C° 0 mm 2 m/S 477 mmHg 57%
    23:00 +6°C° 0 mm 1 m/S 477 mmHg 60%

    Morgen, 19 Juni, Dienstag

    Zeit Temperatur Niederschläge Wind Luftdruck Luftfeuchtigkeit
    00:00 +6°C° 0 mm 1 m/S 477 mmHg 62%
    01:00 +5°C° 0 mm 1 m/S 476 mmHg 64%
    02:00 +5°C° 0 mm 1 m/S 476 mmHg 66%
    03:00 +4°C° 0 mm 1 m/S 476 mmHg 67%
    04:00 +4°C° 0 mm 1 m/S 475 mmHg 67%
    05:00 +3°C° 0 mm 1 m/S 475 mmHg 68%
    06:00 +4°C° 0 mm 2 m/S 476 mmHg 58%
    07:00 +5°C° 0 mm 2 m/S 477 mmHg 49%
    08:00 +6°C° 0 mm 2 m/S 478 mmHg 39%
    09:00 +7°C° 0 mm 2 m/S 479 mmHg 35%
    10:00 +9°C° 0 mm 2 m/S 480 mmHg 31%
    11:00 +10°C° 0 mm 2 m/S 480 mmHg 28%
    12:00 +10°C° 0,1 mm 3 m/S 481 mmHg 28%
    13:00 +11°C° 0,1 mm 3 m/S 481 mmHg 29%
    14:00 +11°C° 0,1 mm 3 m/S 481 mmHg 29%
    15:00 +11°C° 0,1 mm 4 m/S 481 mmHg 32%
    16:00 +11°C° 0,1 mm 4 m/S 481 mmHg 34%
    17:00 +11°C° 0,1 mm 4 m/S 481 mmHg 36%
    18:00 +10°C° 0,1 mm 3 m/S 480 mmHg 41%
    19:00 +8°C° 0,1 mm 3 m/S 480 mmHg 45%
    20:00 +7°C° 0,1 mm 3 m/S 479 mmHg 49%
    21:00 +5°C° 0 mm 3 m/S 479 mmHg 52%
    22:00 +6°C° 0 mm 2 m/S 479 mmHg 55%
    23:00 +5°C° 0 mm 2 m/S 478 mmHg 58%

    übermorgen, 20 Juni, Mittwoch

    Zeit Temperatur Niederschläge Wind Luftdruck Luftfeuchtigkeit
    00:00 +4°C° 0 mm 2 m/S 478 mmHg 60%
    01:00 +4°C° 0 mm 2 m/S 478 mmHg 62%
    02:00 +3°C° 0 mm 2 m/S 477 mmHg 63%
    03:00 +3°C° 0 mm 2 m/S 477 mmHg 63%
    04:00 +2°C° 0 mm 2 m/S 477 mmHg 63%
    05:00 +2°C° 0 mm 2 m/S 476 mmHg 63%
    06:00 +2°C° 0 mm 3 m/S 477 mmHg 53%
    07:00 +4°C° 0 mm 3 m/S 478 mmHg 44%
    08:00 +5°C° 0 mm 3 m/S 479 mmHg 34%
    09:00 +7°C° 0 mm 3 m/S 480 mmHg 31%
    10:00 +8°C° 0 mm 3 m/S 481 mmHg 27%
    11:00 +9°C° 0 mm 3 m/S 482 mmHg 24%
    12:00 +10°C° 0 mm 3 m/S 482 mmHg 24%
    13:00 +11°C° 0 mm 4 m/S 482 mmHg 23%
    14:00 +11°C° 0 mm 4 m/S 482 mmHg 23%
    15:00 +11°C° 0 mm 4 m/S 482 mmHg 25%
    16:00 +11°C° 0 mm 4 m/S 482 mmHg 27%
    17:00 +10°C° 0 mm 4 m/S 482 mmHg 30%
    18:00 +8°C° 0 mm 4 m/S 481 mmHg 35%
    19:00 +7°C° 0 mm 4 m/S 481 mmHg 40%
    20:00 +7°C° 0 mm 3 m/S 480 mmHg 46%
    21:00 +5°C° 0 mm 3 m/S 480 mmHg 49%
    22:00 +4°C° 0 mm 3 m/S 480 mmHg 52%
    23:00 +4°C° 0 mm 3 m/S 479 mmHg 55%

    21 Juni, Donnerstag

    Zeit Temperatur Niederschläge Wind Luftdruck Luftfeuchtigkeit
    00:00 +4°C° 0 mm 2 m/S 479 mmHg 57%
    01:00 +4°C° 0 mm 2 m/S 478 mmHg 59%
    02:00 +3°C° 0 mm 2 m/S 478 mmHg 60%
    03:00 +3°C° 0 mm 2 m/S 478 mmHg 60%
    04:00 +3°C° 0 mm 2 m/S 477 mmHg 60%
    05:00 +2°C° 0 mm 2 m/S 477 mmHg 60%
    06:00 +3°C° 0 mm 2 m/S 478 mmHg 52%
    07:00 +5°C° 0 mm 2 m/S 479 mmHg 44%
    08:00 +6°C° 0 mm 2 m/S 480 mmHg 35%
    09:00 +7°C° 0 mm 2 m/S 480 mmHg 32%
    10:00 +9°C° 0 mm 3 m/S 481 mmHg 29%
    11:00 +10°C° 0 mm 3 m/S 481 mmHg 25%
    12:00 +10°C° 0 mm 3 m/S 482 mmHg 26%
    13:00 +11°C° 0 mm 3 m/S 482 mmHg 26%
    14:00 +12°C° 0 mm 3 m/S 482 mmHg 26%
    15:00 +12°C° 0,1 mm 3 m/S 482 mmHg 29%
    16:00 +11°C° 0,1 mm 3 m/S 481 mmHg 33%
    17:00 +11°C° 0,1 mm 3 m/S 481 mmHg 37%
    18:00 +10°C° 0,1 mm 3 m/S 481 mmHg 42%
    19:00 +9°C° 0,1 mm 3 m/S 480 mmHg 48%
    20:00 +8°C° 0,1 mm 2 m/S 480 mmHg 54%
    21:00 +7°C° 0,1 mm 2 m/S 480 mmHg 57%
    22:00 +7°C° 0,1 mm 2 m/S 479 mmHg 60%
    23:00 +7°C° 0,1 mm 1 m/S 479 mmHg 64%

    22 Juni, Freitag

    Zeit Temperatur Niederschläge Wind Luftdruck Luftfeuchtigkeit
    00:00 +7°C° 0,1 mm 1 m/S 479 mmHg 65%
    01:00 +7°C° 0,1 mm 1 m/S 478 mmHg 67%
    02:00 +6°C° 0,1 mm 1 m/S 478 mmHg 69%
    03:00 +6°C° 0,1 mm 1 m/S 478 mmHg 70%
    04:00 +6°C° 0,1 mm 1 m/S 478 mmHg 72%
    05:00 +5°C° 0,1 mm 1 m/S 477 mmHg 74%
    06:00 +6°C° 0,1 mm 1 m/S 478 mmHg 70%
    07:00 +7°C° 0,1 mm 1 m/S 478 mmHg 66%
    08:00 +7°C° 0,1 mm 1 m/S 479 mmHg 62%
    09:00 +7°C° 0,2 mm 2 m/S 479 mmHg 59%
    10:00 +8°C° 0,2 mm 2 m/S 480 mmHg 55%
    11:00 +8°C° 0,2 mm 2 m/S 480 mmHg 52%
    12:00 +8°C° 0,4 mm 2 m/S 480 mmHg 53%
    13:00 +8°C° 0,4 mm 3 m/S 480 mmHg 54%
    14:00 +9°C° 0,4 mm 3 m/S 479 mmHg 55%
    15:00 +8°C° 0,7 mm 3 m/S 479 mmHg 59%
    16:00 +8°C° 0,7 mm 2 m/S 479 mmHg 62%
    17:00 +7°C° 0,7 mm 2 m/S 478 mmHg 66%
    18:00 +6°C° 0,3 mm 2 m/S 478 mmHg 68%
    19:00 +6°C° 0,3 mm 2 m/S 478 mmHg 70%
    20:00 +6°C° 0,3 mm 1 m/S 478 mmHg 72%
    21:00 +6°C° 0,6 mm 1 m/S 478 mmHg 74%
    22:00 +6°C° 0,6 mm 1 m/S 478 mmHg 76%
    23:00 +6°C° 0,6 mm 1 m/S 478 mmHg 79%

    23 Juni, Samstag

    Zeit Temperatur Niederschläge Wind Luftdruck Luftfeuchtigkeit
    00:00 +5°C° 0,4 mm 1 m/S 478 mmHg 80%
    01:00 +5°C° 0,4 mm 1 m/S 477 mmHg 80%
    02:00 +5°C° 0,4 mm 1 m/S 477 mmHg 81%
    03:00 +5°C° 0,2 mm 1 m/S 477 mmHg 81%
    04:00 +5°C° 0,2 mm 1 m/S 477 mmHg 81%
    05:00 +5°C° 0,2 mm 1 m/S 477 mmHg 81%
    06:00 +5°C° 0,2 mm 1 m/S 477 mmHg 80%
    07:00 +6°C° 0,2 mm 1 m/S 478 mmHg 79%
    08:00 +6°C° 0,2 mm 1 m/S 478 mmHg 78%
    09:00 +7°C° 0,1 mm 1 m/S 479 mmHg 74%
    10:00 +8°C° 0,1 mm 1 m/S 479 mmHg 69%
    11:00 +8°C° 0,1 mm 2 m/S 480 mmHg 65%
    12:00 +9°C° 0,2 mm 2 m/S 480 mmHg 61%
    13:00 +9°C° 0,2 mm 2 m/S 480 mmHg 58%
    14:00 +10°C° 0,2 mm 3 m/S 480 mmHg 54%
    15:00 +10°C° 0,4 mm 2 m/S 480 mmHg 56%
    16:00 +9°C° 0,4 mm 2 m/S 479 mmHg 58%
    17:00 +9°C° 0,4 mm 2 m/S 479 mmHg 60%
    18:00 +8°C° 0,2 mm 2 m/S 479 mmHg 64%
    19:00 +7°C° 0,2 mm 2 m/S 479 mmHg 67%
    20:00 +6°C° 0,2 mm 2 m/S 478 mmHg 71%
    21:00 +7°C° 0 mm 1 m/S 478 mmHg 72%
    22:00 +7°C° 0 mm 1 m/S 478 mmHg 73%
    23:00 +6°C° 0 mm 1 m/S 478 mmHg 74%
    Mehr zeigen